If you wish to contribute or participate in the discussions about articles you are invited to join SKYbrary as a registered user

 Actions

Angoon Seaplane Base

From SKYbrary Wiki

PAGN
Airport
ICAO: PAGN – IATA: AGN
Summary
Name Angoon Seaplane Base
Region North America
Territory Alaska US.gif
Location Angoon, Alaska
Serving Angoon
Type seaplane base
Coordinates 57° 30' 13.00" N, 134° 35' 6.00" W
Runways
Designator Length Width Surface ROPS
NW/SE 3048 m10,000 ft
274 m898.95 ft
WATER /


METAR
Observation PAGN 262056Z AUTO 00000KT 10SM FEW036 SCT042 BKN100 06/06 A2985 RMK AO2 RAE50 SLP099 P0002 60006 T00610061 58001
Station Angoon
Date/Time 26 October 2020 20:56:00
Wind direction
Wind speed 00 kts
Lowest cloud amount few clouds
Temperature 6.1°C
Dew point 6.1°C
Humidity 100%
QNH hPa
Weather condition n/a

Maps

Terrain

Loading map...

Airport Layout

Loading map...


Accidents & Serious Incidents at or in vicinity of PAGN

None on SKYbrary